Regional Weather Roundup
Issued by NWS San Angelo, TX

Home | Current Version | Previous Version | Graphics & Text | Print | Product List | Glossary Off
Versions: 1 2 3 4 5 6 7 8 9 10 11 12 13 14 15 16 17 18 19 20 21 22 23 24 25 26 27 28 29 30 31 32 33 34 35 36 37 38 39 40 41 42 43 44 45 46 47 48 49 50

466
ASUS44 KSJT 270310
RWRSJT
WEST CENTRAL TEXAS REGIONAL WEATHER ROUNDUP
NATIONAL WEATHER SERVICE SAN ANGELO TX
1000 PM CDT THU APR 26 2018

NOTE: "FAIR" INDICATES FEW OR NO CLOUDS BELOW 12,000 FEET WITH NO
SIGNIFICANT WEATHER AND/OR OBSTRUCTIONS TO VISIBILITY.

TXZ049-054-064>066-071>073-076>078-098-099-113-114-127-128-139-140-
154-155-168>170-270400
...LOCATIONS ACROSS WEST CENTRAL TEXAS...

CITY           SKY/WX    TMP DP  RH WIND       PRES   REMARKS
SAN ANGELO     CLEAR     67  43  41 NE7       29.96R
ABILENE        MOCLDY    63  44  50 E8        29.97R
DYESS AFB      MOCLDY    59  47  63 S7        29.96R
JUNCTION       PTCLDY    71  48  43 E12       29.98R
SWEETWATER     CLEAR     63  44  49 W7        30.03R
BROWNWOOD      CLEAR     64  37  36 E7        29.97R
COLEMAN        CLEAR     64  40  42 SE6       29.97R
SONORA         MOCLDY    70  52  52 SE9       30.00R
OZONA          FAIR      66  50  55 S7        29.98R
BRADY          PTCLDY    66  41  39 E7        29.98S
$$

TEXAS PANHANDLE/OKLAHOMA PANHANDLE

CITY           SKY/WX    TMP DP  RH WIND       PRES   REMARKS
AMARILLO       CLEAR     52  36  54 N10       30.18R
BORGER         CLEAR     59  36  42 N15       30.17R
CANADIAN       CLOUDY    52  50  92 W3        30.14R
DALHART        CLEAR     52  30  43 N10       30.23R
DUMAS          CLEAR     48  35  60 N8        30.20R
GUYMON         NOT AVBL
HEREFORD       CLEAR     54  36  51 N10       30.21R
PAMPA          CLEAR     50  43  76 N5        30.17R
PERRYTON       CLEAR     55  40  57 N8        30.15R
$$

SOUTHERN PANHANDLE/SOUTH PLAINS/ROLLING PLAINS

CITY           SKY/WX    TMP DP  RH WIND       PRES   REMARKS
LUBBOCK        CLEAR     60  30  32 N18       30.12R
SNYDER         CLEAR     70  33  26 N22G28    30.04R
CHILDRESS      LGT RAIN  57  50  77 NE26G38   30.11R
SEMINOLE       CLEAR     65  29  26 N16G25    30.14R
$$

PERMIAN BASIN

CITY           SKY/WX    TMP DP  RH WIND       PRES   REMARKS
MIDLAND        CLEAR     72  31  22 N31G41    30.05R
ODESSA         CLEAR     71  28  20 NE23G32   30.06R
WINK           PTCLDY    72  26  18 NE28G38   30.03R
$$

FAR WEST/SOUTHWEST MOUNTAINS/TRANS PECOS

CITY           SKY/WX    TMP DP  RH WIND       PRES   REMARKS
ALPINE         PTCLDY    68  26  20 CALM      30.12R
DRYDEN           N/A     74  48  39 E10       29.92R
EL PASO        CLOUDY    75  21  13 E20       30.00R
FORT STOCKTON  PTCLDY    75  33  21 NE23G35   30.00R
GUADALUPE PASS MOCLDY    63  23  21 NE38G47   30.13R
MARFA          CLOUDY    69  25  19 N20       30.09R
PECOS          CLOUDY    75  29  18 N22G30    30.03R
$$

DALLAS/FORT WORTH METROPLEX

CITY           SKY/WX    TMP DP  RH WIND       PRES   REMARKS
DFW AIRPORT    MOCLDY    64  50  60 E7        29.97S
FTW MEACHAM    CLOUDY    68  49  50 E6        29.98S
DAL-EXECUTIVE  MOCLDY    62  48  60 SE5       30.00R
GRAND PRAIRIE  CLOUDY    65  45  49 E3        30.01R
ADDISON        CLEAR     66  46  48 E3        30.00R
MESQUITE       CLOUDY    62  48  60 CALM      30.01R
LANCASTER      CLOUDY    62  49  63 CALM      30.02R
$$

NORTH CENTRAL TEXAS

CITY           SKY/WX    TMP DP  RH WIND       PRES   REMARKS
SHRMAN/DENISON PTCLDY    62  49  64 E7        30.00R
GAINESVILLE    PTCLDY    60  47  63 NE3       30.01R
BRIDGEPORT     MOCLDY    56  49  77 SE3       30.00R
DENTON         PTCLDY    63  50  62 SE3       29.97F
WAXAHACHIE     CLEAR     61  49  65 CALM      30.02R
GRANBURY       CLOUDY    66  47  51 E3        30.00S
$$

WESTERN NORTH TEXAS

CITY           SKY/WX    TMP DP  RH WIND       PRES   REMARKS
WICHITA FALLS  CLOUDY    60  51  72 NE10      30.02R
VERNON         CLOUDY    64  49  58 NE12      30.08R
BRECKENRIDGE   CLEAR     65  45  47 SE9       29.96S
COMANCHE       CLEAR     61  45  54 SE6       29.98S
$$

CENTRAL AND SOUTH CENTRAL TEXAS

CITY           SKY/WX    TMP DP  RH WIND       PRES   REMARKS
AUSTIN/BERGSTM MOCLDY    57  52  83 CALM      29.98R
WACO           CLEAR     61  45  55 E6        30.00R
HILLSBORO      CLEAR     60  48  63 E6        29.99S
TEMPLE         CLOUDY    62  44  51 E6        30.00R
KILLEEN-GRAY   CLEAR     63  45  51 SE3       30.00R
FORT HOOD      CLOUDY    65  46  48 SE3       29.96R HAZE
GEORGETOWN     CLOUDY    62  47  57 CALM      30.01R
LAGO VISTA     FAIR      63  48  58 E5        30.00R
SAN MARCOS     PTCLDY    63  54  72 CALM      29.98R
NEW BRAUNFELS  MOCLDY    63  52  67 E5        29.96R
RANDOLPH AFB   CLOUDY    62  54  74 CALM      29.97R
SAN ANTONIO    CLOUDY    65  53  65 E8        29.97R
STINSON        MOCLDY    68  57  68 E6        29.94R
PLEASANTON     NOT AVBL
LA GRANGE      CLOUDY    62  58  87 CALM      29.96R
GIDDINGS       PTCLDY    58  52  79 CALM      29.98R
$$

EAST TEXAS

CITY           SKY/WX    TMP DP  RH WIND       PRES   REMARKS
PARIS          CLOUDY    58  51  78 CALM      30.01R
CLARKSVILLE    NOT AVBL
TYLER          CLEAR     61  52  72 N3        30.00R
LONGVIEW       MOCLDY    59  55  87 CALM      30.00R
PALESTINE      CLEAR     56  51  85 CALM      30.01R
NACOGDOCHES      N/A     55  51  86 CALM      30.00R
$$

TEXAS HILL COUNTRY AND EDWARDS PLATEAU

CITY           SKY/WX    TMP DP  RH WIND       PRES   REMARKS
LLANO          MOCLDY    61  52  72 E3        30.01R
HORSESHOE BAY  FAIR      65  49  55 SE5       29.99R
KERRVILLE      PTCLDY    64  54  69 CALM      29.99R
FREDERICKSBRG  CLOUDY    64  50  60 CALM      30.01R
ROCKSPRINGS    MOCLDY    64  54  68 SE6       30.04R
HONDO          MOCLDY    67  57  70 E6        29.96R
UVALDE         PTCLDY    65  55  69 E6        29.95R
DEL RIO        CLEAR     74  53  48 E10       29.90R
$$

SOUTHEAST TEXAS

CITY           SKY/WX    TMP DP  RH WIND       PRES   REMARKS
COLLEGE STN    CLEAR     66  48  52 NE5       29.99R
CALDWELL       PTCLDY    64  48  57 NE5       29.99R
CROCKETT       PTCLDY    55  50  82 CALM      30.02R
BRENHAM        PTCLDY    62  53  72 CALM      29.99R
HUNTSVILLE     CLEAR     60  51  72 CALM      29.99R
CONROE         CLEAR     55  54  96 NW3       29.98R
HOUSTON BUSH   FAIR      65  51  60 VRB5      29.96R
HOUSTON HOBBY  MOCLDY    64  56  75 S5        29.96R
PERLAND        FAIR      64  57  78 CALM      29.98R
WHARTON        PTCLDY    62  48  60 N3        29.97R
$$

THE UPPER TEXAS COAST

CITY           SKY/WX    TMP DP  RH WIND       PRES   REMARKS
ORANGE         FAIR      57  55  95 CALM      29.98R
PORT ARTHUR    FAIR      62  51  67 N3        29.96R
GALVESTON      FAIR      65  58  78 SW5       29.96R
ANGLETON       FAIR      64  55  72 SW6       29.97R
BAY CITY       FAIR      61  56  84 CALM      29.97R
$$

TEXAS COASTAL BEND, RIO GRANDE PLAINS DEEP SOUTH TEXAS

CITY           SKY/WX    TMP DP  RH WIND       PRES   REMARKS
VICTORIA       PTCLDY    63  55  75 S7        29.96R
BEEVILLE       FAIR      62  52  71 SE5       29.96R
ROCKPORT       PTCLDY    65  54  67 S3        29.96R
PORT ARANSAS   NOT AVBL
PORT LAVACA    PTCLDY    62  54  75 S6        29.96R
CORPUS CHRISTI PTCLDY    63  56  78 SE8       29.96R
KINGSVILLE NAS MOCLDY    64  58  80 E6        29.95R
COTULLA        PTCLDY    69  59  70 E7        29.92R
LAREDO         PTCLDY    72  61  68 SE8       29.93R
BROWNSVILLE    CLOUDY    71  66  84 E3        29.96R
PORT ISABEL    FAIR      70  62  76 E6        29.94R
HEBBRONVILLE   CLEAR     67  58  72 SE9       29.95R
MCALLEN        CLOUDY    74  66  76 SE6       29.95R
WESLACO        CLOUDY    71  63  77 SE7       29.94R
FALFURRIAS       N/A     67  58  72 E7        29.95R VSB<1/4
EDINBURG       MOCLDY    72  62  71 CALM      29.95R
$$




USA.gov is the U.S. government's official web portal to all federal, state and local government web resources and services.